Temp_Advection
nan nan nan nan nan nan nan nan nan nan nan nan nan nan nan nan nan nan nan nan nan nan nan nan nan nan nan nan nan nan nan nan nan nan nan nan nan nan nan nan nan nan nan nan
nan -1 -2 -1 0 0 -0 -0 -1 -0 1 0 1 -0 -2 0 -0 -1 -1 -1 -1 -1 -0 -0 0 -0 0 0 0 0 0 0 0 -0 -0 0 0 -0 -0 0 0 -0 0 nan
nan -1 -0 0 0 0 0 -1 -0 0 1 1 0 -0 -0 0 -0 -1 -1 -1 -1 -1 -1 -0 -0 -0 0 -0 0 0 0 0 -0 -0 -0 0 0 -0 -0 -0 -0 -0 -0 nan
nan -0 0 1 -0 0 -0 -1 -0 0 0 0 0 0 -1 -1 1 -1 -1 -1 -1 -0 -0 -0 -0 -0 -0 -0 0 0 0 0 -0 0 -0 -0 -0 -0 -0 -0 -0 -0 -0 nan
nan -0 0 -0 -1 0 -1 -1 0 0 0 -0 0 -1 -1 1 -0 -0 -1 -1 -1 -1 -1 -1 -0 -0 -0 0 -0 0 0 0 -0 -1 -0 0 0 -0 -0 -0 0 -0 -0 nan
nan -0 -0 -0 0 -0 -0 0 0 0 1 0 -1 -1 -0 -1 -1 -1 -1 -1 -1 -1 -1 -0 -0 -0 0 0 0 0 0 -0 -1 -1 -0 0 -0 -0 0 0 0 -0 -0 nan
nan -0 0 -0 -0 0 0 0 0 0 0 -2 -1 -0 -1 -1 -1 -0 3 -0 -1 -1 -0 -0 -1 -0 0 0 0 0 0 -0 -0 -1 -0 -1 -1 0 0 0 -0 -0 -0 nan
nan 0 -0 0 0 -0 0 -0 -0 -1 -1 -2 -1 -1 -2 -2 2 -2 -5 -1 0 -1 -1 -1 -0 -0 -0 0 0 0 0 0 -0 -0 -0 -1 -0 0 0 -0 -0 0 -0 nan
nan 0 -0 -0 0 -0 0 -1 -1 -1 -1 -0 -0 -1 -1 0 1 -0 -2 -0 0 -1 -1 -1 -0 -0 -0 -0 -0 0 0 0 -0 0 -0 -0 0 -1 -0 0 0 0 -0 nan
nan -1 0 0 0 -0 -1 -1 1 1 1 -2 -1 -0 -0 0 -0 0 -0 0 -0 -0 -1 -1 -0 -0 -0 -0 -0 0 0 -0 0 -0 0 0 -0 1 -0 1 0 -0 0 nan
nan -0 -1 0 -0 -1 -0 0 -1 -1 0 -0 -1 -2 -1 -0 -0 -0 0 1 -0 0 -1 0 -0 -0 -0 -0 -0 -0 -0 -0 0 -0 -0 -0 1 0 0 0 -0 0 0 nan
nan -0 -0 -0 -1 -0 0 -0 0 1 -1 -1 -1 -1 -1 0 0 1 1 0 0 0 0 0 0 -0 -0 -0 -0 -0 -0 -0 -1 -0 -0 -0 -0 -0 0 -1 -0 -0 -0 nan
nan 0 -0 -1 -1 0 0 -0 -0 -1 -0 0 -0 -2 -2 0 0 0 0 0 0 -0 0 -0 0 -0 -0 -0 -0 -0 -0 -1 -1 -1 -1 -0 -0 0 -1 -0 -1 -1 -1 nan
nan -1 -1 -1 0 -1 -0 0 -0 0 0 -1 -1 -2 0 1 0 -0 -0 -0 0 -0 0 0 0 -0 0 0 0 0 -0 -0 -0 -1 -1 -0 -0 -1 -0 -1 -0 -1 -1 nan
nan 0 -1 -1 -1 -0 -1 -1 -0 0 -1 -1 -1 -0 -2 -1 -1 -0 0 0 -0 0 1 1 1 0 -0 0 0 0 0 -0 -0 -0 -0 -0 -0 -0 -0 -1 -1 -1 -0 nan
nan 0 -1 -2 -1 -0 -0 -0 -0 -0 -1 -1 -1 -2 -2 -1 -2 -3 -3 -1 0 0 -0 0 1 1 0 0 1 0 0 -0 0 0 0 -0 0 -0 -1 -1 -1 -1 -1 nan
nan 0 0 -1 -2 1 -0 -1 -1 -1 -1 -0 -1 -2 -1 -1 -1 -3 -4 -0 0 1 1 0 0 1 1 1 0 0 -0 1 0 1 0 0 0 -0 -1 -0 -1 -1 -1 nan
nan 0 0 -1 -0 -1 -3 -1 0 0 -0 0 0 -1 -1 -0 -1 -2 -2 -0 -1 -1 0 1 0 0 0 0 0 0 0 1 1 1 0 1 0 0 0 0 -1 -1 -0 nan
nan 1 0 -1 -1 -2 -2 -1 2 -0 -1 -1 -2 -3 -2 -0 -1 -1 -1 1 0 0 0 0 -0 -0 -0 0 1 0 1 0 1 0 1 1 1 1 0 -1 -1 -1 -1 nan
nan 2 0 -0 0 -2 -3 1 -2 -1 -2 -2 -1 -3 -3 -2 -1 -0 1 1 1 0 0 -0 -0 -0 0 -0 -0 1 0 1 0 1 1 1 1 1 -1 -1 -0 -1 -1 nan
nan 1 -0 -0 -0 -2 -0 -1 -0 -1 -2 -2 -8 -10 -4 -1 1 5 1 0 0 -0 -0 -1 -1 -1 -1 -1 -0 0 0 1 1 1 1 1 1 0 -0 1 0 -0 3 nan
nan 0 0 0 0 0 -1 -0 0 -0 -1 -5 -16 -3 1 4 1 0 0 -0 -0 -1 -1 -1 -1 -2 -0 -1 -0 -0 0 1 1 1 1 1 1 0 0 1 1 1 2 nan
nan -0 -0 -0 -0 -0 0 -0 1 -0 -1 -4 -8 -2 1 1 0 -0 -0 -0 -0 -0 -0 -0 -1 -2 0 1 0 -0 0 1 2 1 1 1 1 0 0 0 0 -0 -1 nan
nan 0 -0 -0 -0 -1 1 1 -0 -0 -1 -1 -2 0 1 0 -0 -1 -0 -0 0 1 1 0 0 -1 0 0 1 0 1 2 2 1 1 1 0 -0 0 -0 -1 -1 -1 nan
nan 0 -0 0 0 -1 -0 0 -0 -1 -0 -0 0 -0 1 1 -1 -0 -0 -0 0 1 1 1 1 0 1 1 1 1 2 1 1 1 0 -0 -1 -0 -0 -0 -1 -1 -1 nan
nan nan nan nan nan nan nan nan nan nan nan nan nan nan nan nan nan nan nan nan nan nan nan nan nan nan nan nan nan nan nan nan nan nan nan nan nan nan nan nan nan nan nan nan
Wind_Speed
24 16 19 22 20 21 17 16 20 19 15 16 17 12 28 21 22 24 26 29 31 34 34 33 32 30 29 28 26 26 25 24 22 18 18 16 13 12 11 10 7 7 6 6
14 21 20 18 17 19 18 14 15 16 14 10 16 15 11 18 19 25 26 27 29 31 35 34 34 33 32 31 29 29 28 26 25 20 19 17 15 12 10 9 9 8 7 6
22 13 20 21 19 17 18 18 17 13 11 16 11 19 15 15 24 24 24 26 29 33 36 37 37 36 34 33 32 31 31 30 28 22 20 18 16 13 12 13 8 10 9 7
21 22 11 22 21 17 19 18 18 15 13 13 20 13 21 18 18 22 25 25 29 32 33 36 37 38 37 35 32 32 33 32 29 29 22 22 19 18 15 13 11 11 11 9
17 18 21 18 22 17 18 16 17 17 17 16 21 17 11 28 24 23 25 28 28 32 36 39 41 40 38 36 34 33 34 34 30 33 26 25 22 18 15 13 13 12 10 12
19 10 13 19 16 17 18 17 15 14 15 17 24 18 19 20 17 25 27 31 30 32 34 36 37 37 38 37 36 35 37 37 37 35 34 29 27 22 18 17 15 13 12 12
17 20 13 16 17 22 16 15 13 14 15 18 23 23 19 18 21 25 28 34 33 33 34 35 37 40 40 41 40 39 40 41 42 40 39 35 32 29 21 18 19 16 15 15
13 16 21 17 21 18 26 22 13 21 15 21 24 26 24 26 19 23 55 32 37 35 34 36 38 40 43 43 44 43 42 42 42 43 42 41 38 26 27 23 19 19 17 15
10 18 7 3 8 18 17 24 27 25 22 19 19 25 24 25 27 20 23 27 30 38 35 34 37 39 41 42 45 47 43 44 44 39 43 43 41 36 26 26 25 19 19 16
6 10 10 9 6 16 16 17 18 18 25 26 18 23 20 25 22 25 21 17 22 33 35 33 35 38 40 41 43 43 44 44 45 43 44 43 40 40 35 30 27 24 21 22
12 8 15 9 12 19 16 19 20 19 18 21 19 16 13 21 24 21 25 32 24 24 26 29 33 37 40 39 39 42 43 42 42 43 43 43 42 37 39 35 34 31 24 22
5 8 15 18 13 14 23 13 22 16 22 17 21 16 14 11 20 22 24 30 36 32 27 29 31 35 37 39 39 41 42 42 43 44 45 45 43 41 36 41 39 32 32 27
4 10 12 17 15 16 16 17 17 17 21 25 18 20 20 5 6 5 16 28 30 33 34 29 31 34 37 38 39 39 40 41 40 41 43 42 41 44 42 40 42 37 35 33
2 13 14 15 5 12 9 21 21 18 16 20 21 19 25 11 4 5 11 17 31 26 32 33 32 32 34 37 41 41 41 40 38 37 39 43 45 45 43 42 42 41 38 36
10 16 16 19 18 13 15 13 12 17 18 22 22 22 24 15 12 12 10 12 18 22 27 28 32 31 34 35 38 42 41 40 40 42 41 45 47 47 45 43 43 43 40 38
14 16 16 22 15 17 19 18 19 19 20 22 24 27 23 27 29 31 32 17 10 12 10 13 25 24 30 34 37 40 44 42 43 44 46 45 45 46 46 46 45 44 43 40
16 14 14 20 19 19 21 21 21 22 22 21 23 25 24 25 25 35 34 25 26 18 16 11 17 26 26 29 32 37 44 46 43 44 45 43 44 47 48 47 46 45 45 42
17 15 13 15 19 22 16 18 20 23 23 22 24 25 29 33 39 41 36 8 13 9 6 12 16 18 21 26 29 31 34 43 44 46 42 45 44 47 48 47 49 48 45 44
23 17 8 12 15 19 22 16 20 8 16 17 22 26 35 42 44 40 45 10 10 10 12 18 19 19 19 21 24 30 34 38 45 43 48 47 48 46 47 49 50 50 47 45
23 17 10 12 17 22 22 10 12 9 20 22 31 30 34 39 20 20 14 6 11 13 16 19 20 20 21 24 24 28 34 38 44 48 50 49 48 47 49 51 51 50 49 48
7 14 15 17 18 16 19 9 8 9 15 29 47 46 44 24 29 28 5 7 8 11 14 17 20 23 24 24 27 32 35 41 47 46 42 43 46 47 48 46 47 49 50 40
4 6 9 12 12 19 10 5 5 13 29 38 53 28 29 30 4 2 1 4 5 8 12 14 16 21 24 26 30 36 36 44 37 37 40 41 41 41 37 40 41 40 40 40
3 4 4 4 2 8 3 12 22 21 28 43 31 14 17 9 6 4 9 6 6 5 5 7 10 14 16 21 32 35 42 34 37 38 40 39 37 38 35 38 39 35 35 33
2 4 3 3 5 15 23 24 19 23 29 17 17 1 8 11 7 12 12 10 11 13 9 4 2 7 2 9 18 27 28 34 34 36 37 35 36 36 35 30 29 28 28 28
4 6 5 5 9 22 8 11 16 17 10 8 3 5 9 11 14 14 13 15 20 20 22 22 15 13 10 9 12 16 22 29 31 33 34 35 32 32 33 26 27 26 26 27
5 4 3 3 15 14 14 12 15 8 12 4 4 9 12 17 13 14 18 17 21 26 21 25 24 18 17 16 14 15 18 27 29 31 32 32 30 30 31 33 33 31 31 30
Wind_Direction
197 212 213 214 229 242 283 235 229 204 215 203 210 198 215 169 172 160 172 177 182 185 186 187 189 189 189 189 190 189 184 191 186 185 179 180 185 185 182 180 188 187 179 184
190 220 222 227 233 234 253 257 256 233 197 203 252 227 183 174 175 169 177 177 182 183 186 189 191 191 193 193 194 192 189 195 190 189 184 186 185 190 193 195 201 188 186 184
226 215 220 230 230 232 235 241 246 235 175 230 195 260 241 186 173 170 181 179 182 186 187 191 193 193 194 196 196 197 193 196 197 188 190 191 193 194 197 199 203 195 194 189
227 242 215 219 229 224 234 223 257 247 245 225 217 223 238 201 192 173 184 183 183 186 191 192 194 197 197 198 199 201 200 198 201 183 195 196 189 193 198 199 202 199 191 194
224 230 233 236 227 222 242 247 222 239 249 255 255 224 218 207 186 186 183 188 187 188 190 192 197 198 198 198 201 201 205 202 199 200 190 203 194 199 199 198 196 190 205 193
262 284 240 242 224 220 236 244 247 249 239 234 235 238 232 199 216 202 185 188 192 190 192 194 197 197 199 200 201 202 206 207 202 209 196 201 205 196 204 202 203 205 206 206
224 242 207 248 250 216 214 213 222 225 223 236 222 229 236 217 194 242 188 191 189 190 193 194 194 196 198 199 200 201 204 210 209 209 210 201 202 200 203 209 205 205 208 210
243 212 216 208 235 228 212 227 222 218 220 231 227 221 223 246 241 153 269 187 190 188 191 194 197 198 198 199 199 200 202 210 210 210 214 212 212 209 206 212 210 209 210 213
261 246 87 7 226 252 243 218 239 260 257 245 222 220 236 214 237 249 229 178 211 185 189 194 198 200 200 201 201 201 202 209 211 208 214 218 216 212 213 211 217 210 215 213
315 271 183 187 229 257 265 272 224 239 249 255 249 235 210 212 225 226 229 232 207 202 187 195 198 201 202 204 204 204 204 208 212 205 214 216 217 218 208 211 214 216 214 216
294 249 252 199 213 239 205 241 254 276 236 243 246 243 237 198 205 229 220 221 227 231 184 201 199 202 204 204 203 205 206 206 208 209 210 211 216 216 217 208 215 211 215 218
220 279 239 228 233 241 258 271 226 236 235 245 244 243 255 229 194 206 236 218 222 218 212 198 202 202 201 203 204 204 205 205 210 208 207 212 212 211 215 215 214 220 221 221
245 235 245 247 253 257 254 241 246 265 252 247 231 230 252 188 186 270 239 226 226 228 216 201 206 200 201 202 204 206 206 208 208 206 208 208 209 212 210 218 219 222 228 231
287 273 260 257 75 339 274 223 244 251 248 253 250 255 230 175 197 257 251 235 227 224 218 202 204 200 202 202 202 204 207 208 206 207 206 208 210 210 215 213 222 223 226 228
237 251 257 269 286 280 274 273 253 253 259 260 251 248 261 277 311 266 248 230 242 234 219 218 207 199 195 201 203 203 207 206 206 206 205 208 210 213 211 214 218 225 225 225
234 254 279 284 264 264 257 247 248 255 257 260 273 276 284 301 303 296 294 261 202 249 262 239 204 215 203 202 202 205 204 208 206 206 206 207 209 209 211 215 217 223 224 224
255 253 253 257 256 248 247 250 249 252 249 249 250 257 272 275 275 278 279 245 257 242 225 233 232 220 217 209 207 208 208 206 208 209 207 206 208 211 211 215 218 221 224 227
243 245 245 259 266 257 251 259 260 259 256 253 256 260 259 263 267 270 287 301 304 307 225 242 245 235 224 217 213 213 211 207 210 209 210 207 208 213 213 212 218 223 225 226
232 228 243 239 250 258 261 261 267 325 278 296 284 277 250 253 260 271 270 237 269 266 255 249 245 240 239 228 217 208 208 208 208 210 209 210 208 210 212 214 217 222 224 226
238 228 210 237 235 250 257 263 32 330 268 256 260 251 251 242 246 251 284 210 247 254 257 258 255 250 241 232 217 210 208 207 208 209 211 209 208 209 213 218 218 220 223 225
251 209 225 230 240 256 259 335 341 261 275 311 301 244 230 232 242 252 257 251 259 268 270 273 271 260 244 231 221 216 211 208 213 209 209 209 208 210 215 216 218 221 224 218
280 209 216 238 245 249 23 305 247 316 309 307 301 209 217 229 212 226 167 321 336 313 295 285 291 265 252 235 220 219 214 217 207 206 205 208 209 209 214 211 214 215 217 217
281 321 310 275 274 356 321 299 270 292 283 284 280 250 227 183 173 110 67 26 9 6 324 274 314 277 244 237 216 218 210 208 200 199 201 204 205 206 205 213 212 210 214 213
268 279 268 338 8 310 292 289 268 292 292 264 276 102 174 140 126 77 59 48 48 56 72 86 96 11 189 215 215 217 208 197 194 194 197 198 201 202 198 211 210 207 208 211
306 302 284 259 285 304 278 260 281 291 303 288 39 52 76 100 80 72 61 60 52 60 72 78 88 84 94 125 151 185 193 191 192 198 194 193 196 197 196 197 203 203 206 211
10 331 314 294 313 309 298 348 320 311 341 296 34 56 63 74 60 72 66 64 50 52 53 58 70 81 87 110 139 153 172 194 193 193 191 192 188 192 191 197 195 192 206 211
Height
1490 1490 1482 1475 1475 1469 1458 1455 1461 1447 1448 1457 1462 1468 1472 1470 1475 1483 1492 1501 1508 1515 1524 1531 1538 1543 1549 1554 1559 1563 1567 1570 1574 1578 1582 1586 1588 1590 1593 1594 1595 1596 1598 1598
1480 1478 1473 1471 1469 1471 1468 1467 1457 1448 1447 1456 1459 1463 1460 1464 1467 1477 1486 1495 1504 1513 1520 1527 1534 1539 1545 1550 1555 1560 1564 1567 1571 1576 1580 1585 1587 1590 1592 1594 1594 1597 1598 1598
1469 1464 1469 1469 1470 1472 1471 1470 1463 1460 1453 1458 1463 1469 1457 1462 1459 1472 1481 1490 1498 1505 1512 1521 1528 1534 1540 1546 1551 1556 1560 1563 1567 1574 1578 1582 1586 1588 1591 1592 1594 1596 1598 1599
1464 1461 1463 1468 1468 1469 1473 1467 1465 1462 1464 1474 1461 1482 1463 1457 1454 1462 1476 1483 1491 1499 1507 1516 1523 1529 1534 1541 1548 1552 1556 1560 1564 1569 1575 1579 1583 1585 1588 1590 1592 1594 1596 1599
1462 1462 1461 1468 1463 1468 1470 1461 1464 1467 1468 1468 1459 1467 1453 1445 1467 1452 1464 1476 1484 1491 1498 1506 1514 1521 1529 1536 1542 1548 1552 1556 1561 1564 1571 1575 1580 1584 1586 1588 1589 1593 1594 1597
1461 1456 1456 1456 1460 1464 1466 1467 1466 1465 1467 1480 1462 1456 1444 1448 1444 1450 1451 1464 1475 1484 1492 1499 1508 1518 1524 1531 1536 1542 1545 1549 1554 1559 1566 1571 1575 1580 1583 1586 1588 1592 1593 1595
1463 1459 1462 1464 1460 1459 1466 1469 1483 1485 1479 1474 1447 1455 1441 1423 1435 1436 1436 1451 1463 1475 1484 1492 1500 1508 1515 1522 1528 1534 1538 1543 1547 1553 1559 1564 1570 1575 1579 1583 1586 1589 1591 1592
1455 1461 1454 1457 1460 1454 1457 1461 1461 1478 1464 1451 1439 1444 1437 1427 1423 1436 1455 1442 1451 1462 1474 1483 1491 1499 1506 1513 1520 1526 1530 1535 1542 1547 1552 1558 1564 1571 1576 1580 1583 1586 1588 1590
1458 1454 1453 1457 1459 1458 1452 1457 1447 1447 1432 1434 1421 1423 1422 1422 1426 1426 1434 1433 1455 1450 1461 1474 1484 1492 1500 1507 1511 1516 1522 1527 1534 1541 1546 1551 1558 1565 1571 1575 1578 1582 1585 1588
1467 1471 1446 1457 1468 1466 1464 1447 1458 1454 1468 1458 1427 1418 1421 1423 1424 1426 1431 1435 1440 1448 1450 1464 1475 1484 1492 1498 1505 1513 1518 1520 1525 1534 1539 1545 1550 1557 1564 1569 1573 1577 1581 1583
1476 1478 1460 1461 1470 1462 1459 1461 1455 1445 1441 1453 1450 1422 1397 1408 1418 1423 1427 1434 1437 1436 1442 1458 1467 1476 1484 1493 1500 1505 1511 1517 1521 1526 1532 1538 1543 1550 1556 1562 1566 1571 1575 1579
1482 1476 1471 1459 1453 1450 1447 1447 1446 1454 1456 1433 1432 1426 1398 1402 1410 1421 1425 1430 1435 1440 1442 1452 1460 1469 1477 1484 1491 1496 1503 1508 1512 1518 1525 1530 1536 1543 1549 1554 1559 1564 1568 1572
1486 1483 1479 1472 1464 1457 1459 1453 1450 1442 1439 1437 1438 1434 1404 1405 1413 1421 1424 1428 1432 1434 1439 1445 1454 1461 1468 1475 1483 1489 1496 1500 1506 1512 1518 1524 1530 1534 1540 1545 1552 1557 1562 1565
1499 1486 1476 1464 1463 1463 1453 1456 1452 1449 1450 1443 1432 1426 1411 1415 1424 1425 1427 1425 1428 1430 1432 1438 1446 1453 1461 1467 1474 1482 1488 1495 1501 1506 1512 1516 1521 1526 1532 1539 1544 1550 1554 1559
1500 1495 1487 1477 1474 1475 1471 1464 1459 1461 1457 1453 1437 1436 1422 1419 1426 1426 1425 1427 1427 1428 1431 1433 1439 1446 1454 1461 1467 1474 1483 1488 1494 1498 1503 1507 1512 1517 1524 1531 1536 1542 1547 1552
1494 1495 1491 1483 1472 1473 1471 1469 1469 1468 1464 1459 1452 1444 1433 1435 1441 1435 1430 1427 1430 1430 1431 1431 1436 1441 1447 1454 1460 1466 1473 1480 1486 1490 1493 1499 1505 1511 1516 1522 1528 1534 1540 1544
1493 1491 1493 1486 1472 1470 1472 1467 1466 1463 1461 1462 1461 1452 1451 1448 1446 1440 1432 1428 1429 1429 1434 1436 1438 1440 1444 1448 1453 1459 1463 1472 1479 1483 1488 1495 1498 1503 1508 1514 1520 1526 1531 1538
1492 1494 1498 1490 1477 1478 1457 1455 1453 1452 1451 1452 1454 1455 1451 1446 1442 1439 1432 1426 1430 1430 1432 1438 1441 1441 1441 1443 1447 1453 1460 1465 1471 1477 1482 1488 1492 1495 1501 1508 1512 1518 1523 1529
1481 1485 1494 1493 1481 1468 1458 1455 1456 1465 1460 1461 1461 1455 1449 1445 1442 1436 1429 1430 1433 1435 1437 1440 1441 1440 1439 1440 1441 1446 1452 1456 1463 1467 1473 1477 1484 1488 1494 1499 1504 1510 1516 1521
1469 1474 1492 1481 1482 1475 1455 1452 1468 1473 1455 1458 1457 1453 1444 1440 1438 1428 1430 1427 1432 1434 1436 1436 1435 1434 1434 1434 1436 1439 1443 1448 1451 1456 1459 1468 1476 1481 1484 1489 1496 1502 1508 1513
1472 1478 1482 1475 1476 1467 1459 1463 1469 1475 1454 1450 1447 1433 1429 1428 1427 1429 1430 1430 1429 1429 1428 1427 1425 1423 1423 1426 1430 1432 1435 1438 1438 1448 1457 1463 1468 1473 1477 1484 1490 1495 1500 1507
1473 1474 1474 1476 1473 1471 1468 1468 1474 1461 1457 1453 1437 1412 1421 1422 1424 1429 1428 1427 1424 1421 1417 1416 1416 1414 1414 1416 1420 1423 1426 1427 1438 1443 1450 1456 1462 1469 1476 1479 1483 1489 1495 1499
1482 1480 1479 1474 1462 1466 1470 1472 1470 1467 1463 1455 1446 1426 1424 1425 1427 1428 1421 1424 1422 1417 1414 1411 1411 1408 1407 1407 1410 1414 1417 1425 1429 1436 1442 1449 1456 1462 1470 1473 1478 1483 1489 1495
1490 1489 1486 1483 1471 1471 1466 1465 1463 1460 1454 1448 1439 1428 1429 1427 1427 1423 1422 1422 1419 1416 1412 1410 1409 1407 1402 1404 1406 1409 1415 1419 1423 1429 1436 1442 1448 1454 1463 1469 1476 1481 1484 1489
1495 1491 1484 1477 1473 1469 1460 1460 1457 1453 1446 1437 1434 1433 1430 1428 1423 1424 1426 1422 1420 1415 1409 1409 1408 1405 1401 1400 1401 1408 1412 1415 1420 1426 1432 1435 1443 1450 1458 1466 1471 1475 1479 1482
1493 1490 1485 1476 1476 1469 1462 1457 1451 1443 1439 1437 1433 1431 1428 1424 1427 1428 1428 1422 1422 1414 1412 1409 1405 1403 1402 1400 1401 1402 1405 1413 1417 1423 1426 1431 1437 1444 1453 1456 1461 1467 1469 1476